sat.trackr.live / text

‹ back to catalog

IRIDIUM 169

NORAD 43926 · 2019-002E

PAYLOAD ACTIVE UNKNOWN

§ Identity

Operator
Country
US
Launch date
2019-01-11
Launch site
AFWTR
Launch vehicle
Mass (kg)
RCS (m²)

Purposes: comms

External: N2YO · Heavens-Above · Gunter

§ Orbital elements

Epoch: 2026-05-25T03:50:00.468096Z

Period
100.10 min
Inclination
86.4243°
Eccentricity
0.0002636
Mean motion
14.38607933 rev/d
Perigee alt
761.2 km
Apogee alt
765.0 km
Semi-major
7,141.2 km
B*
2.2627e-5
RAAN
34.8185°
Arg perigee
74.0016°
Mean anomaly
286.1472°
Rev number
38,691

§ Raw data

IRIDIUM 1691 43926U 19002E   26145.15972764  .00000089  00000+0  22627-4 0  99942 43926  86.4243  34.8185 0002636  74.0016 286.1472 14.38607933386918

JSON: /api/v1/satellites/43926 · /tle

For live sub-satellite position, see the globe view (requires WebGL).

§ Visibility from observer

Set your observer location to see the next 7 days of passes ≥ 10°. The values pass through the URL so the page stays shareable.

No JS? Fill the form by hand. The geolocation button needs JavaScript.